This is the latest recevied weather packets stored in our database for station/object YO2LDK-13. If no packets are shown the sender has not sent any weather packets the latest 10 day(s).
| Time | Temp. | Humidity | Pressure | Rain* | Wind** | Luminosity | Snow |
|---|---|---|---|---|---|---|---|
| 1777704319 | 13.33° C | 47% | 1013.5 hPa | 0 mm | - | 290 W/m² | - |
| 1777704020 | 12.78° C | 51% | 1013.5 hPa | 0 mm | - | 199 W/m² | - |
| 1777703719 | 13.33° C | 50% | 1013.5 hPa | 0 mm | - | 322 W/m² | - |
| 1777703419 | 13.33° C | 52% | 1013.5 hPa | 0 mm | - | 378 W/m² | - |
| 1777703119 | 12.78° C | 52% | 1013.5 hPa | 0 mm | - | 236 W/m² | - |
| 1777702819 | 11.67° C | 51% | 1013.5 hPa | 0 mm | - | 74 W/m² | - |
| 1777702519 | 11.11° C | 57% | 1013.5 hPa | 0 mm | - | 292 W/m² | - |
| 1777702219 | 11.11° C | 56% | 1013.5 hPa | 0 mm | - | 37 W/m² | - |
| 1777701634 | 11.11° C | 54% | 1013.5 hPa | 0 mm | - | 34 W/m² | - |
| 1777701319 | 10.56° C | 55% | 1013.5 hPa | 0 mm | - | 40 W/m² | - |
| 1777701019 | 10.56° C | 56% | 1013.5 hPa | 0 mm | - | 37 W/m² | - |
| 1777700719 | 10° C | 56% | 1013.5 hPa | 0 mm | - | 36 W/m² | - |
| 1777700419 | 10° C | 57% | 1013.5 hPa | 0 mm | - | 36 W/m² | - |
| 1777700119 | 9.44° C | 58% | 1013.5 hPa | 0 mm | - | 38 W/m² | - |
| 1777699820 | 8.89° C | 62% | 1013.5 hPa | 0 mm | - | 29 W/m² | - |
| 1777699519 | 8.33° C | 62% | 1013.5 hPa | 0 mm | - | 32 W/m² | - |
| 1777699219 | 7.78° C | 65% | 1013.9 hPa | 0 mm | - | 38 W/m² | - |
| 1777698920 | 7.78° C | 66% | 1013.5 hPa | 0 mm | - | 35 W/m² | - |
| 1777698619 | 7.22° C | 66% | 1013.9 hPa | 0 mm | - | 34 W/m² | - |
| 1777698321 | 6.67° C | 67% | 1013.5 hPa | 0 mm | - | 34 W/m² | - |
| 1777698019 | 6.67° C | 67% | 1013.5 hPa | 0 mm | - | 32 W/m² | - |
| 1777697719 | 6.67° C | 68% | 1013.5 hPa | 0 mm | - | 32 W/m² | - |
| 1777697419 | 6.11° C | 68% | 1013.5 hPa | 0 mm | - | 29 W/m² | - |
| 1777697119 | 6.11° C | 70% | 1013.2 hPa | 0 mm | - | 26 W/m² | - |
| 1777696820 | 5.56° C | 70% | 1013.2 hPa | 0 mm | - | 23 W/m² | - |
* Rain latest hour (hover to see other rain measurements)
** Current wind speed in m/s (hover to see current wind gust speed)